| time (UTC) | temp C | wind direction | speed KPH | gust KPH | rain 1hr cm | rain 24hr cm | rain mn cm | humidity % | barometer mb |
| 20260507023100 | 7 | 0 | 0.0 | 0.0 | 0.00 | 0.84 | 0.58 | 73 | 1014.9 |
| 20260507022601 | 7 | 0 | 0.0 | 0.0 | 0.00 | 0.84 | 0.58 | 73 | 1014.8 |
| 20260507022056 | 8 | 0 | 0.0 | 0.0 | 0.00 | 0.84 | 0.58 | 73 | 1014.7 |
| 20260507021601 | 8 | 0 | 0.0 | 0.0 | 0.00 | 0.84 | 0.58 | 73 | 1014.6 |
| 20260507021059 | 8 | 0 | 0.0 | 0.0 | 0.00 | 0.84 | 0.58 | 72 | 1014.5 |
| 20260507020558 | 8 | 0 | 0.0 | 0.0 | 0.00 | 0.84 | 0.58 | 71 | 1014.5 |
| 20260507015559 | 9 | 0 | 0.0 | 0.0 | 0.00 | 1.04 | 0.58 | 72 | 1014.5 |
| 20260507015056 | 9 | 0 | 0.0 | 1.6 | 0.00 | 1.04 | 0.58 | 72 | 1014.3 |
| 20260507014559 | 10 | 0 | 0.0 | 4.8 | 0.00 | 1.04 | 0.58 | 71 | 1014.4 |
| 20260507014056 | 10 | 0 | 0.0 | 4.8 | 0.00 | 1.04 | 0.58 | 71 | 1014.3 |
| 20260507013559 | 10 | 338 | 0.0 | 6.4 | 0.00 | 1.04 | 0.58 | 70 | 1014.3 |
| 20260507013118 | 10 | 325 | 0.0 | 6.4 | 0.00 | 1.04 | 0.58 | 70 | 1014.2 |
| 20260507012556 | 10 | 324 | 1.6 | 4.8 | 0.00 | 1.04 | 0.58 | 70 | 1014.2 |
| 20260507012059 | 10 | 0 | 0.0 | 3.2 | 0.00 | 1.04 | 0.58 | 71 | 1014.4 |
| 20260507011609 | 10 | 0 | 0.0 | 3.2 | 0.00 | 1.04 | 0.58 | 71 | 1014.3 |
| 20260507011102 | 10 | 0 | 0.0 | 0.0 | 0.00 | 1.04 | 0.58 | 71 | 1014.2 |
| 20260507010603 | 10 | 0 | 0.0 | 0.0 | 0.00 | 1.04 | 0.58 | 71 | 1014.0 |
| 20260507010108 | 10 | 0 | 0.0 | 0.0 | 0.00 | 1.04 | 0.58 | 70 | 1014.1 |
| 20260507005600 | 10 | 0 | 0.0 | 0.0 | 0.00 | 1.14 | 0.58 | 70 | 1014.0 |
| 20260507005105 | 10 | 0 | 0.0 | 1.6 | 0.00 | 1.14 | 0.58 | 70 | 1014.0 |
| 20260507004601 | 10 | 0 | 0.0 | 1.6 | 0.00 | 1.14 | 0.58 | 70 | 1014.0 |
| 20260507004059 | 10 | 0 | 0.0 | 1.6 | 0.00 | 1.14 | 0.58 | 70 | 1013.7 |
| 20260507003604 | 10 | 0 | 0.0 | 3.2 | 0.00 | 1.14 | 0.58 | 69 | 1013.6 |
| 20260507003059 | 11 | 0 | 0.0 | 4.8 | 0.00 | 1.14 | 0.58 | 69 | 1013.6 |
| 20260507002600 | 11 | 0 | 0.0 | 4.8 | 0.00 | 1.14 | 0.58 | 68 | 1013.8 |
| 20260507002059 | 11 | 306 | 1.6 | 8.0 | 0.00 | 1.14 | 0.58 | 67 | 1013.6 |
| 20260507001558 | 11 | 0 | 1.6 | 8.0 | 0.00 | 1.14 | 0.58 | 66 | 1013.4 |
| 20260507001058 | 11 | 327 | 3.2 | 6.4 | 0.00 | 1.14 | 0.58 | 64 | 1013.5 |
| 20260507000600 | 11 | 325 | 3.2 | 8.0 | 0.00 | 1.14 | 0.58 | 64 | 1013.5 |
| 20260507000059 | 11 | 347 | 3.2 | 8.0 | 0.00 | 1.14 | 0.58 | 64 | 1013.4 |
| 20260506235601 | 11 | 0 | 3.2 | 8.0 | 0.00 | 1.22 | 0.58 | 64 | 1013.3 |
| 20260506235105 | 11 | 316 | 1.6 | 12.9 | 0.00 | 1.22 | 0.58 | 64 | 1013.3 |
| 20260506234558 | 11 | 327 | 3.2 | 12.9 | 0.00 | 1.22 | 0.58 | 63 | 1013.3 |
| 20260506234101 | 11 | 337 | 3.2 | 14.5 | 0.00 | 1.22 | 0.58 | 63 | 1013.2 |
| 20260506233600 | 11 | 321 | 4.8 | 14.5 | 0.00 | 1.22 | 0.58 | 63 | 1013.4 |
| 20260506233113 | 12 | 335 | 6.4 | 14.5 | 0.00 | 1.22 | 0.58 | 62 | 1013.2 |
| 20260506232602 | 12 | 347 | 6.4 | 14.5 | 0.00 | 1.22 | 0.58 | 62 | 1013.4 |
| 20260506232059 | 11 | 336 | 6.4 | 16.1 | 0.00 | 1.22 | 0.58 | 62 | 1013.3 |
| 20260506231618 | 11 | 341 | 8.0 | 16.1 | 0.00 | 1.22 | 0.58 | 62 | 1013.4 |
| 20260506231100 | 11 | 341 | 6.4 | 14.5 | 0.00 | 1.22 | 0.58 | 62 | 1013.4 |
| 20260506230559 | 11 | 312 | 6.4 | 14.5 | 0.00 | 1.22 | 0.58 | 62 | 1013.5 |
| 20260506230105 | 11 | 334 | 4.8 | 12.9 | 0.00 | 1.22 | 0.58 | 62 | 1013.6 |
| 20260506225603 | 12 | 319 | 4.8 | 12.9 | 0.00 | 1.32 | 0.58 | 62 | 1013.7 |
| 20260506225100 | 12 | 314 | 4.8 | 16.1 | 0.00 | 1.32 | 0.58 | 61 | 1013.6 |
| 20260506224600 | 12 | 311 | 6.4 | 17.7 | 0.00 | 1.32 | 0.58 | 62 | 1013.7 |
| 20260506224059 | 12 | 331 | 8.0 | 17.7 | 0.00 | 1.32 | 0.58 | 62 | 1013.7 |
| 20260506223600 | 12 | 322 | 8.0 | 17.7 | 0.00 | 1.32 | 0.58 | 62 | 1013.7 |
| 20260506223057 | 12 | 302 | 4.8 | 14.5 | 0.00 | 1.32 | 0.58 | 63 | 1013.6 |
| 20260506222600 | 12 | 321 | 6.4 | 14.5 | 0.00 | 1.32 | 0.58 | 62 | 1013.8 |
| 20260506222100 | 12 | 325 | 6.4 | 17.7 | 0.00 | 1.32 | 0.58 | 62 | 1013.7 |
| 20260506221601 | 12 | 323 | 6.4 | 17.7 | 0.00 | 1.32 | 0.58 | 61 | 1013.8 |
| 20260506221100 | 12 | 323 | 6.4 | 17.7 | 0.00 | 1.32 | 0.58 | 61 | 1013.9 |
| 20260506220602 | 12 | 327 | 6.4 | 14.5 | 0.00 | 1.32 | 0.58 | 61 | 1013.9 |
| 20260506220101 | 12 | 313 | 4.8 | 14.5 | 0.00 | 1.32 | 0.58 | 62 | 1013.7 |
| 20260506215602 | 12 | 336 | 4.8 | 20.9 | 0.00 | 1.55 | 0.58 | 61 | 1013.5 |
| 20260506215110 | 12 | 360 | 9.7 | 20.9 | 0.00 | 1.55 | 0.58 | 59 | 1013.4 |
| 20260506214603 | 12 | 301 | 11.3 | 20.9 | 0.00 | 1.55 | 0.58 | 60 | 1013.4 |
| 20260506214100 | 12 | 343 | 8.0 | 20.9 | 0.00 | 1.55 | 0.58 | 60 | 1013.3 |
| 20260506213559 | 12 | 316 | 6.4 | 17.7 | 0.00 | 1.55 | 0.58 | 60 | 1013.2 |
| 20260506213112 | 12 | 341 | 6.4 | 17.7 | 0.00 | 1.55 | 0.58 | 62 | 1013.1 |
| 20260506212600 | 12 | 301 | 6.4 | 16.1 | 0.00 | 1.55 | 0.58 | 62 | 1013.0 |
| 20260506212103 | 12 | 341 | 6.4 | 12.9 | 0.00 | 1.55 | 0.58 | 63 | 1013.0 |
| 20260506211612 | 12 | 311 | 4.8 | 17.7 | 0.00 | 1.55 | 0.58 | 63 | 1013.0 |
| 20260506211100 | 12 | 344 | 9.7 | 17.7 | 0.00 | 1.55 | 0.58 | 62 | 1012.9 |
| 20260506210600 | 12 | 334 | 9.7 | 17.7 | 0.00 | 1.55 | 0.58 | 62 | 1013.0 |
| 20260506210100 | 12 | 360 | 4.8 | 16.1 | 0.00 | 1.55 | 0.58 | 61 | 1013.0 |
| 20260506205601 | 12 | 319 | 8.0 | 16.1 | 0.00 | 2.24 | 0.58 | 60 | 1013.0 |
| 20260506205101 | 12 | 324 | 8.0 | 20.9 | 0.00 | 2.24 | 0.58 | 62 | 1013.1 |
| 20260506204602 | 12 | 336 | 11.3 | 20.9 | 0.00 | 2.24 | 0.58 | 59 | 1013.0 |
| 20260506204059 | 12 | 351 | 8.0 | 17.7 | 0.00 | 2.24 | 0.58 | 60 | 1012.9 |
| 20260506203600 | 13 | 327 | 8.0 | 17.7 | 0.00 | 2.24 | 0.58 | 61 | 1013.0 |
| 20260506203103 | 13 | 352 | 4.8 | 17.7 | 0.00 | 2.24 | 0.58 | 62 | 1013.0 |
| 20260506202600 | 13 | 342 | 8.0 | 17.7 | 0.00 | 2.24 | 0.58 | 61 | 1013.0 |
| 20260506202101 | 13 | 9 | 8.0 | 20.9 | 0.00 | 2.24 | 0.58 | 62 | 1012.9 |
| 20260506201604 | 13 | 355 | 9.7 | 20.9 | 0.00 | 2.24 | 0.58 | 62 | 1012.8 |
| 20260506201100 | 13 | 323 | 8.0 | 20.9 | 0.00 | 2.24 | 0.58 | 63 | 1012.7 |
| 20260506200600 | 13 | 338 | 6.4 | 19.3 | 0.00 | 2.24 | 0.58 | 64 | 1012.6 |
| 20260506200101 | 13 | 326 | 9.7 | 19.3 | 0.00 | 2.24 | 0.58 | 63 | 1012.7 |
| 20260506195601 | 13 | 360 | 9.7 | 19.3 | 0.00 | 2.24 | 0.58 | 63 | 1012.7 |
| 20260506195100 | 13 | 360 | 11.3 | 19.3 | 0.00 | 2.24 | 0.58 | 64 | 1012.6 |
| 20260506194602 | 13 | 9 | 8.0 | 19.3 | 0.00 | 2.24 | 0.58 | 63 | 1012.8 |
| 20260506194103 | 13 | 324 | 9.7 | 19.3 | 0.00 | 2.24 | 0.58 | 63 | 1012.8 |
| 20260506193602 | 13 | 319 | 8.0 | 20.9 | 0.00 | 2.24 | 0.58 | 63 | 1012.8 |
| 20260506193102 | 13 | 360 | 9.7 | 20.9 | 0.00 | 2.24 | 0.58 | 62 | 1012.8 |
| 20260506192600 | 13 | 43 | 9.7 | 24.1 | 0.00 | 2.24 | 0.58 | 62 | 1012.6 |
| 20260506192102 | 13 | 52 | 12.9 | 27.4 | 0.00 | 2.24 | 0.58 | 62 | 1012.8 |
| 20260506191601 | 13 | 333 | 12.9 | 27.4 | 0.00 | 2.24 | 0.58 | 61 | 1012.7 |
| 20260506191103 | 13 | 340 | 11.3 | 24.1 | 0.00 | 2.24 | 0.58 | 60 | 1012.5 |
| 20260506190601 | 14 | 59 | 11.3 | 20.9 | 0.00 | 2.24 | 0.58 | 61 | 1012.5 |
| 20260506190100 | 14 | 337 | 8.0 | 19.3 | 0.00 | 2.24 | 0.58 | 62 | 1012.5 |
| 20260506185600 | 14 | 286 | 8.0 | 24.1 | 0.00 | 2.24 | 0.58 | 60 | 1012.4 |
| 20260506185100 | 14 | 331 | 12.9 | 24.1 | 0.00 | 2.24 | 0.58 | 61 | 1012.4 |
| 20260506184622 | 14 | 36 | 12.9 | 24.1 | 0.00 | 2.24 | 0.58 | 62 | 1012.3 |
| 20260506184100 | 14 | 35 | 11.3 | 20.9 | 0.00 | 2.24 | 0.58 | 62 | 1012.5 |
| 20260506183557 | 14 | 355 | 8.0 | 19.3 | 0.00 | 2.24 | 0.58 | 63 | 1012.5 |
| 20260506183056 | 14 | 360 | 6.4 | 19.3 | 0.00 | 2.24 | 0.58 | 63 | 1012.4 |
| 20260506182558 | 14 | 350 | 9.7 | 19.3 | 0.00 | 2.24 | 0.58 | 64 | 1012.5 |
| 20260506182058 | 14 | 338 | 6.4 | 14.5 | 0.00 | 2.24 | 0.58 | 63 | 1012.5 |
| 20260506181557 | 13 | 360 | 6.4 | 19.3 | 0.00 | 2.24 | 0.58 | 64 | 1012.6 |
| 20260506181059 | 14 | 355 | 9.7 | 19.3 | 0.00 | 2.24 | 0.58 | 63 | 1012.6 |
| 20260506180557 | 14 | 340 | 3.2 | 19.3 | 0.00 | 2.24 | 0.58 | 64 | 1012.7 |
| 20260506175559 | 13 | 355 | 1.6 | 19.3 | 0.00 | 2.24 | 0.58 | 63 | 1012.6 |
| 20260506175056 | 13 | 360 | 4.8 | 20.9 | 0.00 | 2.24 | 0.58 | 64 | 1012.6 |
| 20260506174556 | 13 | 360 | 6.4 | 20.9 | 0.00 | 2.24 | 0.58 | 64 | 1012.7 |
| 20260506174056 | 13 | 338 | 4.8 | 19.3 | 0.00 | 2.24 | 0.58 | 65 | 1012.7 |
| 20260506173556 | 13 | 45 | 8.0 | 17.7 | 0.00 | 2.24 | 0.58 | 63 | 1012.7 |
| 20260506173108 | 14 | 336 | 8.0 | 17.7 | 0.00 | 2.24 | 0.58 | 65 | 1012.7 |
| 20260506172556 | 13 | 326 | 6.4 | 17.7 | 0.00 | 2.24 | 0.58 | 66 | 1012.8 |
| 20260506172056 | 13 | 63 | 6.4 | 19.3 | 0.00 | 2.24 | 0.58 | 64 | 1012.9 |
| 20260506171609 | 13 | 332 | 8.0 | 20.9 | 0.00 | 2.24 | 0.58 | 64 | 1012.9 |
| 20260506171057 | 13 | 343 | 11.3 | 20.9 | 0.00 | 2.24 | 0.58 | 65 | 1012.8 |
| 20260506170556 | 13 | 343 | 6.4 | 22.5 | 0.00 | 2.24 | 0.58 | 64 | 1012.7 |
| 20260506165559 | 13 | 355 | 11.3 | 19.3 | 0.00 | 2.24 | 0.58 | 65 | 1012.8 |
| 20260506165056 | 13 | 360 | 4.8 | 19.3 | 0.00 | 2.24 | 0.58 | 68 | 1012.7 |
| 20260506164618 | 13 | 360 | 9.7 | 20.9 | 0.00 | 2.24 | 0.58 | 65 | 1012.8 |
| 20260506164056 | 13 | 26 | 11.3 | 20.9 | 0.00 | 2.24 | 0.58 | 66 | 1012.8 |
| 20260506163556 | 13 | 342 | 8.0 | 17.7 | 0.00 | 2.24 | 0.58 | 67 | 1012.8 |
| 20260506163106 | 13 | 86 | 3.2 | 17.7 | 0.00 | 2.24 | 0.58 | 65 | 1012.7 |
| 20260506162556 | 13 | 355 | 4.8 | 17.7 | 0.00 | 2.24 | 0.58 | 66 | 1012.6 |
| 20260506162056 | 12 | 22 | 3.2 | 16.1 | 0.00 | 2.24 | 0.58 | 68 | 1012.8 |
| 20260506161559 | 12 | 24 | 4.8 | 19.3 | 0.00 | 2.24 | 0.58 | 64 | 1013.0 |
| 20260506161056 | 12 | 355 | 4.8 | 19.3 | 0.00 | 2.24 | 0.58 | 67 | 1013.2 |
| 20260506160556 | 12 | 27 | 6.4 | 19.3 | 0.00 | 2.24 | 0.58 | 66 | 1013.2 |
| 20260506160111 | 12 | 352 | 6.4 | 17.7 | 0.00 | 2.24 | 0.58 | 68 | 1013.2 |
| 20260506155556 | 12 | 360 | 6.4 | 16.1 | 0.00 | 2.24 | 0.58 | 67 | 1013.2 |
| 20260506155056 | 12 | 360 | 8.0 | 16.1 | 0.00 | 2.24 | 0.58 | 67 | 1013.0 |
| 20260506154557 | 11 | 347 | 8.0 | 19.3 | 0.00 | 2.24 | 0.58 | 72 | 1012.7 |
| 20260506154059 | 11 | 317 | 6.4 | 19.3 | 0.00 | 2.24 | 0.58 | 70 | 1012.3 |
| 20260506153559 | 11 | 315 | 9.7 | 19.3 | 0.00 | 2.24 | 0.58 | 70 | 1012.4 |
| 20260506153103 | 11 | 336 | 6.4 | 17.7 | 0.00 | 2.24 | 0.58 | 71 | 1012.3 |
| 20260506152555 | 11 | 355 | 9.7 | 20.9 | 0.00 | 2.24 | 0.58 | 71 | 1012.3 |
| 20260506152056 | 10 | 25 | 11.3 | 20.9 | 0.00 | 2.24 | 0.58 | 69 | 1012.1 |
| 20260506151558 | 11 | 355 | 12.9 | 19.3 | 0.00 | 2.24 | 0.58 | 69 | 1012.2 |
| 20260506151056 | 10 | 27 | 6.4 | 19.3 | 0.00 | 2.24 | 0.58 | 69 | 1012.2 |
| 20260506150556 | 10 | 346 | 11.3 | 19.3 | 0.00 | 2.24 | 0.58 | 69 | 1012.3 |
| 20260506150055 | 10 | 17 | 11.3 | 19.3 | 0.00 | 2.24 | 0.58 | 67 | 1012.0 |
| 20260506145558 | 10 | 41 | 6.4 | 17.7 | 0.00 | 2.24 | 0.58 | 70 | 1011.9 |
| 20260506145056 | 10 | 24 | 4.8 | 20.9 | 0.00 | 2.24 | 0.58 | 70 | 1011.6 |
| 20260506144556 | 10 | 352 | 11.3 | 20.9 | 0.00 | 2.24 | 0.58 | 70 | 1011.9 |
| 20260506144056 | 10 | 343 | 9.7 | 19.3 | 0.00 | 2.24 | 0.58 | 73 | 1011.9 |
| 20260506143556 | 10 | 18 | 8.0 | 20.9 | 0.00 | 2.24 | 0.58 | 75 | 1011.8 |
| 20260506143058 | 9 | 345 | 12.9 | 20.9 | 0.00 | 2.24 | 0.58 | 75 | 1012.1 |
| 20260506142556 | 9 | 11 | 9.7 | 19.3 | 0.00 | 2.24 | 0.58 | 76 | 1012.1 |
| 20260506142055 | 9 | 14 | 11.3 | 19.3 | 0.00 | 2.24 | 0.58 | 76 | 1012.1 |
| 20260506141611 | 8 | 360 | 9.7 | 19.3 | 0.00 | 2.24 | 0.58 | 78 | 1012.0 |
| 20260506141057 | 8 | 336 | 9.7 | 20.9 | 0.00 | 2.24 | 0.58 | 78 | 1011.8 |
| 20260506140558 | 8 | 351 | 11.3 | 20.9 | 0.00 | 2.24 | 0.58 | 79 | 1011.8 |
| 20260506140057 | 8 | 309 | 8.0 | 16.1 | 0.00 | 2.24 | 0.58 | 79 | 1011.6 |
| 20260506135556 | 8 | 348 | 9.7 | 22.5 | 0.00 | 2.24 | 0.58 | 80 | 1011.6 |
| 20260506135056 | 8 | 11 | 9.7 | 22.5 | 0.00 | 2.24 | 0.58 | 79 | 1011.6 |
| 20260506134557 | 8 | 9 | 11.3 | 20.9 | 0.00 | 2.24 | 0.58 | 80 | 1011.3 |
| 20260506134056 | 8 | 350 | 11.3 | 20.9 | 0.00 | 2.24 | 0.58 | 81 | 1011.2 |
| 20260506133559 | 8 | 15 | 6.4 | 19.3 | 0.00 | 2.24 | 0.58 | 82 | 1011.0 |
| 20260506133106 | 8 | 344 | 8.0 | 19.3 | 0.00 | 2.24 | 0.58 | 82 | 1011.1 |
| 20260506132556 | 8 | 350 | 8.0 | 19.3 | 0.00 | 2.24 | 0.58 | 83 | 1011.1 |
| 20260506132056 | 8 | 350 | 3.2 | 17.7 | 0.00 | 2.24 | 0.58 | 84 | 1011.2 |
| 20260506131558 | 7 | 338 | 6.4 | 16.1 | 0.00 | 2.24 | 0.58 | 85 | 1011.0 |
| 20260506131057 | 7 | 352 | 6.4 | 17.7 | 0.00 | 2.24 | 0.58 | 84 | 1011.0 |
| 20260506130556 | 7 | 337 | 6.4 | 22.5 | 0.00 | 2.24 | 0.58 | 84 | 1010.8 |
| 20260506130057 | 7 | 351 | 12.9 | 22.5 | 0.00 | 2.24 | 0.58 | 84 | 1010.9 |
| 20260506125556 | 7 | 348 | 12.9 | 19.3 | 0.00 | 2.24 | 0.58 | 84 | 1010.8 |
| 20260506125056 | 7 | 351 | 8.0 | 20.9 | 0.00 | 2.24 | 0.58 | 85 | 1010.9 |
| 20260506124557 | 7 | 351 | 12.9 | 20.9 | 0.00 | 2.24 | 0.58 | 85 | 1011.1 |
| 20260506124056 | 7 | 9 | 12.9 | 20.9 | 0.00 | 2.24 | 0.58 | 85 | 1011.0 |
| 20260506123556 | 7 | 339 | 8.0 | 17.7 | 0.00 | 2.24 | 0.58 | 86 | 1010.9 |
| 20260506123056 | 7 | 9 | 6.4 | 20.9 | 0.00 | 2.24 | 0.58 | 87 | 1010.7 |
| 20260506122556 | 7 | 336 | 12.9 | 20.9 | 0.00 | 2.24 | 0.58 | 88 | 1010.7 |
| 20260506122100 | 7 | 350 | 8.0 | 20.9 | 0.00 | 2.24 | 0.58 | 89 | 1010.6 |
| 20260506121613 | 7 | 337 | 9.7 | 20.9 | 0.00 | 2.24 | 0.58 | 89 | 1010.3 |
| 20260506121100 | 7 | 9 | 11.3 | 20.9 | 0.00 | 2.24 | 0.58 | 90 | 1010.2 |
| 20260506120600 | 7 | 342 | 8.0 | 17.7 | 0.00 | 2.24 | 0.58 | 91 | 1009.8 |
| 20260506120120 | 7 | 340 | 11.3 | 17.7 | 0.00 | 2.24 | 0.58 | 91 | 1009.7 |
| 20260506115600 | 6 | 342 | 11.3 | 19.3 | 0.00 | 2.24 | 0.58 | 91 | 1009.8 |
| 20260506115059 | 6 | 350 | 6.4 | 19.3 | 0.00 | 2.24 | 0.58 | 92 | 1009.8 |
| 20260506114559 | 6 | 336 | 9.7 | 19.3 | 0.00 | 2.24 | 0.58 | 91 | 1009.7 |
| 20260506114059 | 6 | 344 | 8.0 | 14.5 | 0.00 | 2.24 | 0.58 | 92 | 1009.9 |
| 20260506113559 | 6 | 352 | 1.6 | 14.5 | 0.00 | 2.24 | 0.58 | 92 | 1009.9 |
| 20260506113109 | 6 | 338 | 8.0 | 19.3 | 0.00 | 2.24 | 0.58 | 92 | 1009.8 |
| 20260506112601 | 6 | 348 | 9.7 | 20.9 | 0.00 | 2.24 | 0.58 | 92 | 1010.0 |
| 20260506112056 | 6 | 352 | 9.7 | 20.9 | 0.00 | 2.24 | 0.58 | 92 | 1009.9 |
| 20260506111559 | 6 | 352 | 9.7 | 19.3 | 0.00 | 2.24 | 0.58 | 92 | 1010.0 |
| 20260506111100 | 6 | 331 | 9.7 | 19.3 | 0.00 | 2.24 | 0.58 | 92 | 1009.7 |
| 20260506110603 | 6 | 17 | 9.7 | 16.1 | 0.00 | 2.24 | 0.58 | 93 | 1009.2 |
| 20260506110101 | 6 | 328 | 4.8 | 16.1 | 0.00 | 2.24 | 0.58 | 93 | 1008.5 |
| 20260506105603 | 6 | 344 | 6.4 | 19.3 | 0.00 | 2.24 | 0.58 | 93 | 1008.5 |
| 20260506105059 | 6 | 41 | 8.0 | 20.9 | 0.00 | 2.24 | 0.58 | 93 | 1008.5 |
| 20260506104559 | 6 | 348 | 11.3 | 20.9 | 0.00 | 2.24 | 0.58 | 93 | 1008.6 |
| 20260506104100 | 6 | 347 | 11.3 | 19.3 | 0.03 | 2.24 | 0.58 | 93 | 1008.9 |
| 20260506103559 | 6 | 338 | 8.0 | 19.3 | 0.03 | 2.24 | 0.58 | 93 | 1008.5 |
| 20260506103101 | 6 | 11 | 8.0 | 19.3 | 0.03 | 2.24 | 0.58 | 93 | 1008.6 |
| 20260506102600 | 6 | 352 | 11.3 | 19.3 | 0.03 | 2.24 | 0.58 | 93 | 1008.9 |
| 20260506102101 | 6 | 340 | 11.3 | 17.7 | 0.03 | 2.24 | 0.58 | 93 | 1008.7 |
| 20260506101603 | 6 | 352 | 9.7 | 17.7 | 0.03 | 2.24 | 0.58 | 93 | 1008.6 |
| 20260506101059 | 6 | 337 | 9.7 | 16.1 | 0.03 | 2.24 | 0.58 | 93 | 1008.6 |
| 20260506100600 | 6 | 343 | 4.8 | 14.5 | 0.03 | 2.24 | 0.58 | 93 | 1008.4 |
| 20260506095600 | 6 | 352 | 8.0 | 14.5 | 0.03 | 2.24 | 0.58 | 93 | 1008.2 |
| 20260506095100 | 6 | 352 | 4.8 | 12.9 | 0.03 | 2.24 | 0.58 | 93 | 1007.9 |
| 20260506094602 | 6 | 348 | 4.8 | 17.7 | 0.03 | 2.24 | 0.58 | 93 | 1007.6 |
| 20260506094059 | 6 | 32 | 3.2 | 22.5 | 0.00 | 2.21 | 0.56 | 93 | 1007.6 |
| 20260506093600 | 6 | 344 | 12.9 | 22.5 | 0.00 | 2.21 | 0.56 | 93 | 1008.0 |
| 20260506093101 | 6 | 15 | 9.7 | 17.7 | 0.03 | 2.21 | 0.56 | 93 | 1008.0 |
| 20260506092600 | 6 | 349 | 6.4 | 19.3 | 0.03 | 2.21 | 0.56 | 93 | 1007.7 |
| 20260506092100 | 6 | 10 | 6.4 | 19.3 | 0.05 | 2.21 | 0.56 | 93 | 1007.7 |
| 20260506091558 | 6 | 349 | 8.0 | 20.9 | 0.05 | 2.21 | 0.56 | 93 | 1007.9 |
| 20260506091059 | 6 | 18 | 8.0 | 20.9 | 0.08 | 2.21 | 0.56 | 93 | 1007.9 |
| 20260506090559 | 6 | 11 | 8.0 | 20.9 | 0.08 | 2.21 | 0.56 | 93 | 1008.1 |
| 20260506090059 | 6 | 330 | 9.7 | 24.1 | 0.10 | 2.21 | 0.56 | 93 | 1008.1 |
| 20260506085556 | 6 | 360 | 14.5 | 24.1 | 0.13 | 2.21 | 0.56 | 93 | 1008.0 |
| 20260506085059 | 6 | 340 | 11.3 | 20.9 | 0.13 | 2.21 | 0.56 | 93 | 1007.8 |
| 20260506084600 | 6 | 347 | 11.3 | 24.1 | 0.15 | 2.21 | 0.56 | 93 | 1007.8 |
| 20260506084100 | 6 | 352 | 8.0 | 25.7 | 0.15 | 2.21 | 0.56 | 93 | 1007.7 |
| 20260506083559 | 6 | 346 | 11.3 | 27.4 | 0.15 | 2.21 | 0.56 | 93 | 1007.8 |
| 20260506083100 | 6 | 351 | 14.5 | 27.4 | 0.13 | 2.18 | 0.53 | 92 | 1007.8 |
| 20260506082559 | 6 | 340 | 17.7 | 27.4 | 0.13 | 2.18 | 0.53 | 92 | 1008.0 |
| 20260506082103 | 6 | 330 | 16.1 | 25.7 | 0.13 | 2.16 | 0.51 | 93 | 1008.1 |
| 20260506081605 | 7 | 25 | 14.5 | 25.7 | 0.13 | 2.16 | 0.51 | 93 | 1008.0 |
| 20260506081100 | 7 | 360 | 16.1 | 25.7 | 0.10 | 2.13 | 0.48 | 93 | 1007.9 |
| 20260506080603 | 7 | 334 | 16.1 | 25.7 | 0.10 | 2.13 | 0.48 | 92 | 1007.8 |
| 20260506080112 | 7 | 344 | 16.1 | 27.4 | 0.10 | 2.11 | 0.46 | 93 | 1007.6 |
| 20260506073105 | 7 | 9 | 8.0 | 17.7 | 0.10 | 2.06 | 0.41 | 93 | 1007.5 |
| 20260506072557 | 7 | 340 | 8.0 | 24.1 | 0.13 | 2.06 | 0.41 | 93 | 1007.3 |
| 20260506072057 | 7 | 32 | 9.7 | 24.1 | 0.10 | 2.03 | 0.38 | 92 | 1007.2 |
| 20260506071601 | 7 | 11 | 9.7 | 19.3 | 0.13 | 2.03 | 0.38 | 93 | 1007.2 |
| 20260506071057 | 7 | 29 | 9.7 | 19.3 | 0.15 | 2.03 | 0.38 | 93 | 1007.1 |
| 20260506070556 | 7 | 21 | 9.7 | 24.1 | 0.15 | 2.03 | 0.38 | 92 | 1007.2 |
| 20260506070116 | 7 | 29 | 9.7 | 24.1 | 0.13 | 2.01 | 0.36 | 93 | 1007.0 |
| 20260506062100 | 7 | 44 | 11.3 | 25.7 | 0.15 | 1.93 | 0.28 | 92 | 1007.5 |
| 20260506061602 | 7 | 352 | 11.3 | 27.4 | 0.13 | 1.91 | 0.25 | 92 | 1007.5 |
| 20260506061057 | 7 | 343 | 14.5 | 27.4 | 0.13 | 1.88 | 0.23 | 92 | 1007.5 |
| 20260506060556 | 7 | 350 | 11.3 | 27.4 | 0.13 | 1.88 | 0.23 | 92 | 1007.6 |
| 20260506051059 | 8 | 360 | 8.0 | 20.9 | 0.10 | 1.75 | 0.10 | 93 | 1007.8 |
| 20260506050600 | 8 | 41 | 6.4 | 22.5 | 0.10 | 1.75 | 0.10 | 92 | 1007.4 |
| 20260506050112 | 8 | 23 | 11.3 | 22.5 | 0.08 | 1.73 | 0.08 | 92 | 1007.6 |
| 20260506045057 | 8 | 340 | 4.8 | 14.5 | 0.08 | 1.73 | 0.08 | 92 | 1007.5 |
| 20260506044603 | 8 | 352 | 6.4 | 19.3 | 0.03 | 1.68 | 0.03 | 92 | 1007.6 |
| 20260506044057 | 8 | 19 | 8.0 | 19.3 | 0.03 | 1.68 | 0.03 | 92 | 1007.7 |
| 20260506043558 | 8 | 26 | 6.4 | 19.3 | 0.00 | 1.65 | 0.00 | 92 | 1007.8 |
| 20260506043059 | 9 | 24 | 8.0 | 19.3 | 0.00 | 1.65 | 0.00 | 92 | 1007.9 |
| 20260506042556 | 9 | 329 | 8.0 | 16.1 | 0.00 | 1.65 | 0.00 | 92 | 1007.7 |
| 20260506042102 | 9 | 352 | 4.8 | 11.3 | 0.00 | 1.65 | 0.00 | 92 | 1007.5 |
| 20260506041600 | 9 | 9 | 3.2 | 9.7 | 0.03 | 1.65 | 0.00 | 92 | 1007.6 |
| 20260506041059 | 9 | 350 | 3.2 | 12.9 | 0.03 | 1.65 | 0.00 | 92 | 1007.7 |
| 20260506040559 | 9 | 74 | 3.2 | 14.5 | 0.03 | 1.65 | 0.00 | 92 | 1007.6 |
| 20260506040101 | 9 | 78 | 4.8 | 14.5 | 0.05 | 1.65 | 0.00 | 92 | 1007.5 |
| 20260506035559 | 9 | 10 | 4.8 | 14.5 | 0.08 | 1.65 | 1.65 | 92 | 1007.5 |
| 20260506035059 | 9 | 48 | 4.8 | 14.5 | 0.10 | 1.65 | 1.65 | 92 | 1007.7 |
| 20260506034559 | 9 | 17 | 6.4 | 14.5 | 0.15 | 1.65 | 1.65 | 92 | 1007.7 |
| 20260506034057 | 9 | 80 | 3.2 | 12.9 | 0.18 | 1.65 | 1.65 | 92 | 1007.6 |
| 20260506033558 | 9 | 55 | 4.8 | 17.7 | 0.20 | 1.65 | 1.65 | 92 | 1007.8 |
| 20260506033105 | 9 | 68 | 6.4 | 17.7 | 0.23 | 1.65 | 1.65 | 92 | 1007.9 |
| 20260506032558 | 9 | 24 | 6.4 | 22.5 | 0.23 | 1.65 | 1.65 | 92 | 1007.9 |
| 20260506032056 | 9 | 341 | 8.0 | 24.1 | 0.23 | 1.65 | 1.65 | 92 | 1007.8 |
| 20260506031602 | 9 | 11 | 9.7 | 24.1 | 0.20 | 1.63 | 1.63 | 92 | 1007.8 |
| 20260506031100 | 10 | 344 | 8.0 | 17.7 | 0.20 | 1.63 | 1.63 | 92 | 1008.3 |
| 20260506030559 | 10 | 352 | 6.4 | 22.5 | 0.20 | 1.63 | 1.63 | 91 | 1008.5 |
| 20260506030114 | 10 | 339 | 8.0 | 25.7 | 0.20 | 1.60 | 1.60 | 91 | 1008.3 |
| 20260506025559 | 10 | 345 | 12.9 | 25.7 | 0.18 | 1.57 | 1.57 | 90 | 1008.7 |
| 20260506025056 | 10 | 336 | 16.1 | 29.0 | 0.18 | 1.55 | 1.55 | 90 | 1008.7 |
| 20260506024559 | 10 | 32 | 12.9 | 29.0 | 0.15 | 1.47 | 1.47 | 90 | 1008.7 |
| 20260506024059 | 11 | 334 | 16.1 | 29.0 | 0.15 | 1.47 | 1.47 | 89 | 1008.4 |
| 20260506023559 | 12 | 344 | 8.0 | 16.1 | 0.13 | 1.45 | 1.45 | 88 | 1008.6 |